Starlink 2657

operational
NORAD ID: 48655 Int'l Des: 2021-044 Owner: SPXS Country: US Constellation: starlink
LEOCIRCULARSTARLINK_TYPE

About Starlink 2657

Description loading...

Live Position

Loading 3D Globe...

Upcoming Passes

Altitude History

Altitude vs Time

uPlot chart will show altitude changes over time

Two-Line Element Set

1 48655U 21044T 25350.14148239 .00001414 00000-0 11384-3 0 9996
2 48655 53.0549 136.6790 0001700 85.1386 274.9797 15.06397777251114
Epoch: Dec 16, 2025 • Age: 19 hours

Current Status

Altitude 565.0 km
Velocity 7.58 km/s
Sub-Earth Point -48.61°S, 44.74°W
Launch Date May 26, 2021
Age 4.5 years
Type internet

Technical Details

Classification Payload
Mass 260.00 kg
Dry Mass 248.00 kg
Total Mass 260.00 kg
Length 0.20 m
Diameter 2.80 m
Span 9.00 m
Shape Box + pan
Manufacturer SPXS
Bus Type Starlink
Phase Status In Orbit
Owner/State SPXS/US

Large Constellations

Loading constellations...